This demonstration page uses our WeatherBlox Daily Observations layout. Learn more.

Left ArrowRight Arrow

Hourly Observations for February 8, 2016

Temp ( °F °C ) Dew Point ( °F °C ) Humidity (%) Winds ( mph kmh ) Pressure ( in mb ) Visibility ( mi km ) Precip ( " mm )
12:54 am 00:54 Cloudy 34 1.1 20 -6.7 56 56 NNW 16 26 30.08 1019 10 16 0.00 0.00
1:54 am 01:54 Cloudy 34 1.1 19 -7.2 54 54 NW 20 31 30.06 1018 10 16 0.00 0.00
2:54 am 02:54 Cloudy 34 1.1 20 -6.7 56 56 NW 17 28 30.06 1018 10 16 0.00 0.00
3:54 am 03:54 Cloudy 31 -0.6 24 -4.4 76 76 N 18 30 30.09 1019 8 13 0.00 0.00
4:04 am 04:04 Windy with Snow Likely 30 -1 25 -4 80 80 N 25 41 30.12 1020 8 13 0.00 0.00
4:29 am 04:29 Cloudy 31 -0.6 23 -5 72 72 N 17 28 30.12 1020 9 14 0.00 0.03
4:54 am 04:54 Cloudy 30 -1.1 23 -5 75 75 NNW 18 30 30.09 1019 9 14 0.00 0.03
5:54 am 05:54 Cloudy 30 -1.1 18 -7.8 61 61 N 36 57 30.11 1020 10 16 0.00 0.00
6:54 am 06:54 Cloudy 29 -1.7 18 -7.8 63 63 NNW 24 39 30.13 1020 10 16 0.00 0.00
7:54 am 07:54 Cloudy 29 -1.7 18 -7.8 63 63 NNW 28 44 30.14 1021 10 16 0.00 0.00
8:54 am 08:54 Cloudy 29 -1.7 17 -8.3 61 61 NNW 29 46 30.16 1021 10 16 0.00 0.00
9:54 am 09:54 Cloudy 29 -1.7 18 -7.8 63 63 NNW 21 33 30.18 1022 10 16 0.00 0.00
10:54 am 10:54 Cloudy 30 -1.1 17 -8.3 58 58 NNW 35 56 30.19 1023 10 16 0.00 0.00
11:54 am 11:54 Cloudy 31 -0.6 19 -7.2 61 61 NNW 30 48 30.19 1022 10 16 0.00 0.00
12:54 pm 12:54 Partly Cloudy 32 0 19 -7.2 59 59 NNW 22 35 30.18 1022 10 16 0.00 0.00
1:54 pm 13:54 Sunny 33 0.6 20 -6.7 58 58 NNW 22 35 30.16 1021 10 16 0.00 0.00
2:54 pm 14:54 Sunny 34 1.1 18 -7.8 52 52 NNW 24 39 30.16 1021 10 16 0.00 0.00
3:54 pm 15:54 Sunny 34 1.1 18 -7.8 52 52 NNW 26 43 30.16 1022 10 16 0.00 0.00
4:54 pm 16:54 Sunny 34 1.1 20 -6.7 56 56 NNW 20 31 30.17 1022 10 16 0.00 0.00
5:54 pm 17:54 Clear 33 0.6 20 -6.7 58 58 NNW 13 20 30.18 1022 10 16 0.00 0.00
6:54 pm 18:54 Clear 33 0.6 20 -6.7 58 58 NNW 18 30 30.16 1022 10 16 0.00 0.00
7:54 pm 19:54 Clear 32 0 21 -6.1 64 64 NW 13 20 30.17 1022 10 16 0.00 0.00
8:54 pm 20:54 Clear 32 0 21 -6.1 64 64 NW 16 26 30.16 1021 10 16 0.00 0.00
9:54 pm 21:54 Clear 32 0 20 -6.7 61 61 NNW 15 24 30.16 1021 10 16 0.00 0.00
10:54 pm 22:54 Cloudy 31 -0.6 21 -6.1 67 67 NW 13 20 30.16 1021 10 16 0.00 0.00
11:54 pm 23:54 Cloudy 30 -1.1 20 -6.7 66 66 NNW 15 24 30.16 1021 10 16 0.00 0.00

Powered by AerisWeather